COSMOS 732

导读

COSMOS 732是独联体(CIS)所属卫星,于1975年5月28日08:00发射入轨,属于苏联“宇宙”系列卫星项目。该系列卫星是苏联规模最大的航天计划,涵盖军事侦察、空间科学实验、技术验证等多种任务,为苏联航天技术发展积累了大量关键数据,推动了冷战时期苏联航天领域的技术进步,是苏联早期航天活动的重要组成部分。

基本信息
目录编号:
7820
目录名称:
COSMOS 732
国际标识:
1975-045A
轨道中心:
EARTH
卫星名称:
COSMOS 732
卫星全名:
--
卫星状态:
在轨 (已飞行18734 天)
发射日期:
1975-05-28 UTC
国别 :
俄罗斯(独联体) (CIS)
星等 :
--
轨道信息
数据来源 国际轨道数据 AOE轨道数据
星历时间 2026-09-11T00:38:53+0800
12小时前
查看轨道信息
2026-09-10T07:00:00+0800
1天前
查看轨道信息
半长轴 7814.626km 7814.625km
偏心率 0.0042005 0.004211
轨道倾角 74.015° 74.015°
近地点辐角 54.146° 55.214°
升交点赤经 239.160° 240.150°
平近点角 120.745° 33.957°
近地点 1403.663km 1403.58km
远地点 1469.315km 1469.396km
周期 114.583分钟 114.583分钟
每日圈数 12.567257 12.567259
详细信息
使用方式:
暂无
2D轨道图
3D轨道图
轨道高度分析图
轨道倾角分析图
轨道综合分析图
查看轨道综合分析图
交会数据列表
事件ID 空间交会对象 最接近时刻(TCA) 交会距离 交会风险概率(CRP) 交会风险指数(CRI) 操作
CDM_260913-075500-782001-645424
2026-09-13T
07:55:40+0000
2.465 km
极远距离
1.692944E-6 低风险 0.4
CDM_260912-153000-782003-804424
2026-09-12T
15:30:40+0000
2.530 km
极远距离
1.573977E-6 低风险 0.39
与全量物体交会距离演化趋势
与全量物体交会风险概率演化趋势